Location: Lynch Observatory
(39.9540°N, 75.1861°W)
Time: 20:20:10
(UTC-04:00)

ZACube-1 - Pass Details

Date: 30 April 2024
Orbit: 566 x 635 km, 97.7° (Epoch: 28 May)

Event Time Altitude Azimuth Distance (km) Brightness Sun altitude
Rises 04:41:36 0° 1° (N) 2,939 ? -14.4°
Reaches altitude 10° 04:44:00 10° 351° (N) 2,030 ? -14.0°
Maximum altitude 04:47:52 31° 290° (WNW) 1,128 ? -13.4°
Enters shadow 04:50:06 20° 244° (WSW) 1,482 ? -13.1°
